Showing default

YUNHAI 2-1A, 43909

Orbit data source: Space-Track

YUNHAI 2-1A, 43909 is a payload satellite owned by CASC (CN) in LEO that was launched on Sat, 29 Dec 2018 UTC via a CHANG ZHENG 2D/YZ-3 launch vehicle from the Jiuquan Satellite Launch Center, China (JSC). Payload-class satellites include a variety of spacecraft equipped with specific instruments for various scientific and technological missions. These include communications satellites like Starlink; space stations such as the ISS; scientific satellites like the Hubble; Earth observation satellites from companies like Planet Labs, Umbra, and HawkEye 360; GPS; miniature CubeSats for education and research; and military/defense satellites.

Loading next visibility...
Identifier
43909, 2018-112A
Orbit
LEO
Country
Flag of CNCN / PRC
Related business
Manufacturer
DFH Shenzhen
Mission
Operational Defense Meteo Radio Occ.
Bus & Motor
YH-2, Unknown motor
Mass
~100 kg wet, ~100 kg dry
Launch date (UTC)
2018-12-29 (7 years ago)
Launch vehicle
CHANG ZHENG 2D/YZ-3
Launch site
Jiuquan Satellite Launch Center, China (JSC)
Object type
Payload
Rocket body
Debris
Shape & HBR
Box + 2 Pan, 0.5 m
Radar Cross Section
0.166 m², Large (>1 m²)

Expand to show TLE details & history
Last TLE update: 10 hours ago

TLE from 10 hours ago
0 YUNHAI 2-1A
1 43909U 18112A   25309.94679925  .00000229  00000-0  15373-3 0  9993
2 43909  50.0097 271.7596 0000131 337.8389  22.2521 14.28885445359168
Epoch: 2025-11-05T22:43Z
TLE epoch observation values (Epoch: 2025-11-05T22:43:23.455Z)
Latitude
0.00003°
Longitude
-114.50027°
Altitude
795.903 km
Speed
7.457 km/s
True Right ascension
18h 07m 02s
True Declination
0° 00' 00"
Sunlit
Object was in daylight at epoch
Visualization orbit readout
Latitude
Unknown
Longitude
Unknown
Altitude
Unknown
Speed
Unknown
Apparent Right ascension
Unknown
Apparent Declination
Unknown
Sunlit
N/A
Visualization observer readout
Local Sidereal Time
05:07:54
Azimuth
Unknown
Elevation
Unknown
Doppler factor
Unknown
Orbital elements
Apogee altitude
796.291 km
Perigee altitude
796.103 km
Semi-major axis
7,174.334 km
Eccentricity
0.00001
Inclination
50.0097°
RAAN
271.7596°
Arg. of periapsis
337.8389°
True anomaly
22.25267°
Mean anomaly
22.2521°
Eccentric anomaly
22.25238°
Mean motion
3.57167 °/min
Orbital period
100.79 mins
BSTAR
0.00015373
Loading maneuver chart data...
Computing Atmospheric mass density...
Loading historical data...
Loading historical data...
Loading historical data...
Loading historical data...
Loading historical data...
Loading historical data...
Loading historical data...

Documentation

Showing up to 5 results
|